Salt Lake City, UT

7:49 AM MDT on April 19, 2018 (GMT -0600)
Salt Lake City International

Weather History for KSLC - November, 2012

Change the Weather History Date:

Friday, November 30, 2012

  Actual Average Record
Temperature  
Mean Temperature 54 °F 34 °F  
Max Temperature 59 °F 42 °F 68 °F (1995)
Min Temperature 49 °F 25 °F 0 °F (1896)
Degree Days  
Heating Degree Days 11 31  
Month to date heating degree days 579 750  
Since 1 July heating degree days 885 1218  
Cooling Degree Days 0 0  
Month to date cooling degree days 0 0  
Year to date cooling degree days 1615 1160  
Growing Degree Days 4 (Base 50)    
Moisture  
Dew Point 37 °F    
Average Humidity 60    
Maximum Humidity 80    
Minimum Humidity 40    
Precipitation  
Precipitation 0.10 in 0.05 in 0.56 in (1945)
Month to date precipitation 1.66 1.45  
Year to date precipitation 11.28 14.69  
Snow  
Snow 0.00 in 0.40 in 7.50 in (1922)
Month to date snowfall 15.2 7.6  
Since 1 July snowfall 15.5 9.0  
Snow Depth 0.00 in    
Sea Level Pressure  
Sea Level Pressure 29.87 in    
Wind  
Wind Speed 15 mph (SSE)    
Max Wind Speed 30 mph    
Max Gust Speed 38 mph    
Visibility 10 miles    
Events Rain    
T = Trace of Precipitation, MM = Missing Value Source: NWS Daily Summary

Daily Weather History Graph

Daily Weather History Graph

Search for Another Location

Airport or City:

Astronomy

Nov. 30, 2012 Rise Set
Actual Time 7:32 AM MST 5:01 PM MST
Civil Twilight 7:01 AM MST 5:31 PM MST
Nautical Twilight 6:27 AM MST 6:05 PM MST
Astronomical Twilight 5:54 AM MST 6:38 PM MST
Moon 6:59 PM MST (11/30) 9:06 AM MST (11/30)
Length of Visible Light 10h 29m
Length of Day
9h 28m
Waning Gibbous, 96% of the Moon is Illuminated
Nov 30
Waning Gibbous
Dec 6
Last Quarter
Dec 13
New
Dec 19
First Quarter
Dec 28
Full

Hourly Weather History & Observations

Time (MST) Temp. Dew Point Humidity Pressure Visibility Wind Dir Wind Speed Gust Speed Precip Events Conditions
12:53 AM 51.1 °F 34.0 °F 52% 29.94 in 10.0 mi SSE 8.1 mph - N/A   Mostly Cloudy
1:53 AM 48.9 °F 34.0 °F 56% 29.92 in 10.0 mi South 11.5 mph - N/A   Scattered Clouds
2:53 AM 52.0 °F 34.0 °F 50% 29.89 in 10.0 mi South 11.5 mph - N/A   Scattered Clouds
3:53 AM 52.0 °F 33.1 °F 49% 29.89 in 10.0 mi South 13.8 mph - N/A   Scattered Clouds
4:53 AM 51.1 °F 33.1 °F 50% 29.88 in 10.0 mi South 11.5 mph - N/A   Scattered Clouds
5:53 AM 50.0 °F 34.0 °F 54% 29.88 in 10.0 mi SSE 10.4 mph - N/A   Mostly Cloudy
6:53 AM 51.1 °F 33.1 °F 50% 29.88 in 10.0 mi SSE 11.5 mph - N/A   Scattered Clouds
7:53 AM 52.0 °F 34.0 °F 50% 29.87 in 10.0 mi South 17.3 mph 24.2 mph N/A   Mostly Cloudy
8:53 AM 54.0 °F 35.1 °F 49% 29.88 in 10.0 mi South 20.7 mph 26.5 mph N/A   Mostly Cloudy
9:53 AM 55.0 °F 35.1 °F 47% 29.88 in 10.0 mi South 23.0 mph 32.2 mph N/A   Mostly Cloudy
10:53 AM 55.0 °F 35.1 °F 47% 29.90 in 10.0 mi South 15.0 mph 23.0 mph N/A   Mostly Cloudy
11:53 AM 57.0 °F 35.1 °F 44% 29.86 in 10.0 mi South 21.9 mph 32.2 mph N/A   Mostly Cloudy
12:53 PM 57.0 °F 35.1 °F 44% 29.82 in 10.0 mi South 23.0 mph 34.5 mph N/A   Overcast
1:53 PM 59.0 °F 35.1 °F 41% 29.82 in 10.0 mi South 25.3 mph 33.4 mph N/A   Overcast
2:53 PM 59.0 °F 35.1 °F 41% 29.79 in 10.0 mi South 20.7 mph 35.7 mph N/A   Overcast
3:53 PM 57.9 °F 34.0 °F 41% 29.79 in 10.0 mi South 18.4 mph 34.5 mph N/A   Overcast
4:53 PM 57.0 °F 34.0 °F 42% 29.78 in 10.0 mi South 25.3 mph 34.5 mph N/A   Overcast
5:53 PM 57.0 °F 37.0 °F 47% 29.81 in 10.0 mi South 20.7 mph 26.5 mph 0.00 in Rain Light Rain
6:53 PM 52.0 °F 43.0 °F 71% 29.86 in 8.0 mi SE 9.2 mph 21.9 mph 0.03 in Rain Light Rain
7:53 PM 50.0 °F 44.1 °F 80% 29.89 in 8.0 mi Calm Calm - 0.05 in Rain Light Rain
8:53 PM 50.0 °F 45.0 °F 83% 29.88 in 9.0 mi ESE 8.1 mph - 0.02 in Rain Light Rain
9:53 PM 50.0 °F 44.6 °F 82% 29.93 in 10.0 mi SSE 8.1 mph - N/A   Mostly Cloudy
10:53 PM 52.0 °F 43.0 °F 71% 29.88 in 10.0 mi South 13.8 mph - N/A   Mostly Cloudy
11:53 PM 52.0 °F 42.1 °F 69% 29.88 in 10.0 mi South 11.5 mph - N/A   Mostly Cloudy